Livermore, CA

10:28 AM PDT on April 23, 2018 (GMT -0700)
Livermore Municipal

Weather History for KLVK - October, 2014

Change the Weather History Date:

Thursday, October 23, 2014

  Actual Average Record
Temperature  
Mean Temperature 66 °F 61 °F  
Max Temperature 77 °F 74 °F 91 °F (1942)
Min Temperature 55 °F 48 °F 33 °F (1961)
Degree Days  
Heating Degree Days 0 4  
Month to date heating degree days 11 59  
Since 1 July heating degree days 11 83  
Cooling Degree Days 1 0  
Month to date cooling degree days 116 38  
Year to date cooling degree days 1262 827  
Growing Degree Days 15 (Base 50)    
Moisture  
Dew Point 53 °F    
Average Humidity 68    
Maximum Humidity 93    
Minimum Humidity 43    
Precipitation  
Precipitation 0.00 in 0.03 in 1.00 in (1989)
Month to date precipitation 0.02 0.57  
Year to date precipitation 5.11 10.70  
Since 1 July precipitation 0.23  
Sea Level Pressure  
Sea Level Pressure 30.01 in    
Wind  
Wind Speed 3 mph (ENE)    
Max Wind Speed 13 mph    
Max Gust Speed 15 mph    
Visibility 10 miles    
Events      
T = Trace of Precipitation, MM = Missing Value Source: NWS Daily Summary

Daily Weather History Graph

Daily Weather History Graph

Search for Another Location

Airport or City:

Astronomy

Oct. 23, 2014 Rise Set
Actual Time 7:23 AM PDT 6:19 PM PDT
Civil Twilight 6:56 AM PDT 6:45 PM PDT
Nautical Twilight 6:26 AM PDT 7:16 PM PDT
Astronomical Twilight 5:55 AM PDT 7:46 PM PDT
Moon 7:08 AM PDT 6:24 PM PDT
Length of Visible Light 11h 49m
Length of Day
10h 55m
Waning Crescent, 0% of the Moon is Illuminated
Oct 23
Waning Crescent
Oct 23
New
Oct 30
First Quarter
Nov 6
Full
Nov 14
Last Quarter

Hourly Weather History & Observations

Time (PDT) Temp. Dew Point Humidity Pressure Visibility Wind Dir Wind Speed Gust Speed Precip Events Conditions
12:53 AM 61.0 °F 55.0 °F 81% 30.03 in 10.0 mi Calm Calm - N/A   Clear
1:53 AM 57.9 °F 54.0 °F 87% 30.03 in 10.0 mi Calm Calm - N/A   Clear
2:53 AM 57.9 °F 53.1 °F 84% 30.02 in 10.0 mi Calm Calm - N/A   Clear
3:53 AM 57.0 °F 53.1 °F 87% 30.01 in 10.0 mi SSE 4.6 mph - N/A   Clear
4:53 AM 57.0 °F 53.1 °F 87% 30.02 in 10.0 mi East 3.5 mph - N/A   Mostly Cloudy
5:08 AM 57.2 °F 53.6 °F 88% 30.03 in 10.0 mi NE 4.6 mph - N/A   Scattered Clouds
5:53 AM 55.9 °F 52.0 °F 87% 30.03 in 10.0 mi NE 3.5 mph - N/A   Clear
6:53 AM 55.9 °F 53.1 °F 90% 30.04 in 10.0 mi Calm Calm - N/A   Clear
7:53 AM 55.9 °F 53.1 °F 90% 30.06 in 10.0 mi Calm Calm - N/A   Clear
8:53 AM 59.0 °F 51.1 °F 75% 30.07 in 10.0 mi Calm Calm - N/A   Clear
9:53 AM 62.1 °F 53.1 °F 72% 30.08 in 10.0 mi Calm Calm - N/A   Clear
10:53 AM 66.9 °F 55.0 °F 66% 30.06 in 10.0 mi Calm Calm - N/A   Clear
11:53 AM 70.0 °F 55.0 °F 59% 30.05 in 10.0 mi WSW 3.5 mph - N/A   Clear
12:53 PM 75.0 °F 51.1 °F 43% 30.04 in 10.0 mi West 6.9 mph - N/A   Clear
1:53 PM 75.0 °F 52.0 °F 44% 30.01 in 10.0 mi Calm Calm - N/A   Clear
2:53 PM 75.0 °F 51.1 °F 43% 29.99 in 10.0 mi Variable 4.6 mph - N/A   Clear
3:53 PM 75.9 °F 52.0 °F 43% 29.97 in 10.0 mi WNW 5.8 mph - N/A   Clear
4:53 PM 75.9 °F 53.1 °F 45% 29.96 in 10.0 mi Variable 4.6 mph - N/A   Clear
5:53 PM 73.0 °F 53.1 °F 49% 29.96 in 10.0 mi East 8.1 mph - N/A   Clear
6:53 PM 68.0 °F 51.1 °F 55% 29.96 in 10.0 mi ENE 4.6 mph - N/A   Clear
7:53 PM 68.0 °F 52.0 °F 56% 29.96 in 10.0 mi Calm Calm - N/A   Clear
8:53 PM 64.0 °F 52.0 °F 65% 29.96 in 10.0 mi Calm Calm - N/A   Clear
9:53 PM 62.1 °F 51.1 °F 67% 29.97 in 10.0 mi Calm Calm - N/A   Clear
10:53 PM 62.1 °F 54.0 °F 75% 29.99 in 10.0 mi East 10.4 mph - N/A   Clear
11:53 PM 61.0 °F 53.1 °F 75% 29.99 in 10.0 mi East 10.4 mph - N/A   Clear